Time,TemperatureF,DewpointF,PressureIn,WindDirection,WindDirectionDegrees,WindSpeedMPH,WindSpeedGustMPH,Humidity,HourlyPrecipIn,Conditions,Clouds,dailyrainin,SoftwareType,DateUTC
2013-08-06 00:01:00,73.8,66.5,30.06,SSW,192,3.0,4.0,78,0.00,,---,0.00,VWS V14.01,2013-08-06 04:01:00,
2013-08-06 00:02:00,73.8,66.5,30.06,South,179,4.0,5.0,78,0.00,,---,0.00,VWS V14.01,2013-08-06 04:02:00,
2013-08-06 00:05:00,73.7,66.4,30.06,SSE,161,2.0,5.0,78,0.00,,---,0.00,VWS V14.01,2013-08-06 04:05:00,
2013-08-06 00:07:00,73.7,66.4,30.06,SSW,200,4.0,5.0,78,0.00,,---,0.00,VWS V14.01,2013-08-06 04:07:00,
2013-08-06 00:12:00,73.4,66.1,30.06,SSE,167,2.0,6.0,78,0.00,,---,0.00,VWS V14.01,2013-08-06 04:12:00,
2013-08-06 00:17:00,73.3,66.0,30.05,South,175,4.0,7.0,78,0.00,,---,0.00,VWS V14.01,2013-08-06 04:17:00,
2013-08-06 00:22:00,73.3,66.0,30.06,SSW,195,1.0,7.0,78,0.00,,---,0.00,VWS V14.01,2013-08-06 04:22:00,
2013-08-06 00:27:00,73.3,66.0,30.06,SE,138,4.0,9.0,78,0.00,,---,0.00,VWS V14.01,2013-08-06 04:27:00,
2013-08-06 00:32:00,73.3,65.7,30.05,South,171,5.0,7.0,77,0.00,,---,0.00,VWS V14.01,2013-08-06 04:32:00,
2013-08-06 00:37:00,73.3,65.7,30.06,SE,138,3.0,7.0,77,0.00,,---,0.00,VWS V14.01,2013-08-06 04:37:00,
2013-08-06 00:42:00,73.2,65.6,30.06,SSE,167,3.0,7.0,77,0.00,,---,0.00,VWS V14.01,2013-08-06 04:42:00,
2013-08-06 00:47:00,73.2,65.6,30.05,SSE,157,2.0,5.0,77,0.00,,---,0.00,VWS V14.01,2013-08-06 04:47:00,
2013-08-06 00:52:00,73.1,65.1,30.05,South,173,3.0,6.0,76,0.00,,---,0.00,VWS V14.01,2013-08-06 04:52:00,
2013-08-06 00:57:00,73.1,65.1,30.05,SSE,161,5.0,8.0,76,0.00,,---,0.00,VWS V14.01,2013-08-06 04:57:00,
2013-08-06 01:02:00,73.1,65.1,30.05,SSE,168,1.0,5.0,76,0.00,,---,0.00,VWS V14.01,2013-08-06 05:02:00,
2013-08-06 01:07:00,73.1,64.7,30.04,SSW,209,5.0,10.0,75,0.00,,---,0.00,VWS V14.01,2013-08-06 05:07:00,
2013-08-06 01:12:00,73.0,64.6,30.05,South,172,3.0,10.0,75,0.00,,---,0.00,VWS V14.01,2013-08-06 05:12:00,
2013-08-06 01:18:00,73.0,64.6,30.05,South,175,2.0,5.0,75,0.00,,---,0.00,VWS V14.01,2013-08-06 05:18:00,
2013-08-06 01:23:00,72.9,64.5,30.04,South,182,4.0,7.0,75,0.00,,---,0.00,VWS V14.01,2013-08-06 05:23:00,
2013-08-06 01:28:00,72.9,64.5,30.05,ESE,122,3.0,7.0,75,0.00,,---,0.00,VWS V14.01,2013-08-06 05:28:00,
2013-08-06 01:33:00,72.8,64.4,30.05,South,183,2.0,4.0,75,0.00,,---,0.00,VWS V14.01,2013-08-06 05:33:00,
2013-08-06 01:38:00,72.7,64.3,30.05,South,190,1.0,7.0,75,0.00,,---,0.00,VWS V14.01,2013-08-06 05:38:00,
2013-08-06 01:43:00,72.6,64.2,30.05,SSE,157,4.0,8.0,75,0.00,,---,0.00,VWS V14.01,2013-08-06 05:43:00,
2013-08-06 01:48:00,72.6,64.2,30.05,South,171,2.0,5.0,75,0.00,,---,0.00,VWS V14.01,2013-08-06 05:48:00,
2013-08-06 01:53:00,72.6,64.2,30.05,South,170,1.0,8.0,75,0.00,,---,0.00,VWS V14.01,2013-08-06 05:53:00,
2013-08-06 01:58:00,72.5,64.1,30.05,SSE,163,2.0,8.0,75,0.00,,---,0.00,VWS V14.01,2013-08-06 05:58:00,
2013-08-06 02:03:00,72.4,64.0,30.05,South,174,1.0,5.0,75,0.00,,---,0.00,VWS V14.01,2013-08-06 06:03:00,
2013-08-06 02:08:00,72.4,64.0,30.05,South,180,2.0,7.0,75,0.00,,---,0.00,VWS V14.01,2013-08-06 06:08:00,
2013-08-06 02:13:00,72.3,63.9,30.04,SSE,164,2.0,7.0,75,0.00,,---,0.00,VWS V14.01,2013-08-06 06:13:00,
2013-08-06 02:18:00,72.3,63.9,30.04,SSE,162,3.0,6.0,75,0.00,,---,0.00,VWS V14.01,2013-08-06 06:18:00,
2013-08-06 02:23:00,72.2,63.8,30.04,SSW,209,5.0,8.0,75,0.00,,---,0.00,VWS V14.01,2013-08-06 06:23:00,
2013-08-06 02:28:00,72.2,63.8,30.04,South,170,2.0,8.0,75,0.00,,---,0.00,VWS V14.01,2013-08-06 06:28:00,
2013-08-06 02:34:00,72.2,63.5,30.04,South,175,3.0,8.0,74,0.00,,---,0.00,VWS V14.01,2013-08-06 06:34:00,
2013-08-06 02:39:00,72.1,63.8,30.04,South,172,3.0,9.0,75,0.00,,---,0.00,VWS V14.01,2013-08-06 06:39:00,
2013-08-06 02:44:00,72.1,63.8,30.04,SSE,163,1.0,9.0,75,0.00,,---,0.00,VWS V14.01,2013-08-06 06:44:00,
2013-08-06 02:49:00,72.0,64.0,30.04,SW,215,3.0,3.0,76,0.00,,---,0.00,VWS V14.01,2013-08-06 06:49:00,
2013-08-06 02:54:00,71.9,63.9,30.03,SW,219,5.0,5.0,76,0.00,,---,0.00,VWS V14.01,2013-08-06 06:54:00,
2013-08-06 02:59:00,71.9,63.9,30.03,SSE,164,2.0,7.0,76,0.00,,---,0.00,VWS V14.01,2013-08-06 06:59:00,
2013-08-06 03:04:00,71.9,63.9,30.03,South,176,0.0,7.0,76,0.00,,---,0.00,VWS V14.01,2013-08-06 07:04:00,
2013-08-06 03:09:00,71.8,63.8,30.03,SSE,154,3.0,7.0,76,0.00,,---,0.00,VWS V14.01,2013-08-06 07:09:00,
2013-08-06 03:14:00,71.7,63.7,30.03,South,180,2.0,7.0,76,0.00,,---,0.00,VWS V14.01,2013-08-06 07:14:00,
2013-08-06 03:19:00,71.6,64.0,30.03,SSW,193,1.0,3.0,77,0.00,,---,0.00,VWS V14.01,2013-08-06 07:19:00,
2013-08-06 03:24:00,71.6,63.6,30.03,South,180,0.0,5.0,76,0.00,,---,0.00,VWS V14.01,2013-08-06 07:24:00,
2013-08-06 03:29:00,71.6,63.6,30.03,SSE,163,1.0,5.0,76,0.00,,---,0.00,VWS V14.01,2013-08-06 07:29:00,
2013-08-06 03:34:00,71.6,64.0,30.03,SSW,194,0.0,3.0,77,0.00,,---,0.00,VWS V14.01,2013-08-06 07:34:00,
2013-08-06 03:39:00,71.5,63.9,30.03,South,191,0.0,3.0,77,0.00,,---,0.00,VWS V14.01,2013-08-06 07:39:00,
2013-08-06 03:44:00,71.5,64.3,30.03,SSW,198,0.0,3.0,78,0.00,,---,0.00,VWS V14.01,2013-08-06 07:44:00,
2013-08-06 03:49:00,71.4,64.2,30.03,SSE,167,0.0,2.0,78,0.00,,---,0.00,VWS V14.01,2013-08-06 07:49:00,
2013-08-06 03:54:00,71.3,64.1,30.03,SSE,167,0.0,2.0,78,0.00,,---,0.00,VWS V14.01,2013-08-06 07:54:00,
2013-08-06 04:00:00,71.2,64.4,30.03,WSW,252,0.0,2.0,79,0.00,,---,0.00,VWS V14.01,2013-08-06 08:00:00,
2013-08-06 04:05:00,71.2,64.4,30.02,WSW,244,0.0,2.0,79,0.00,,---,0.00,VWS V14.01,2013-08-06 08:05:00,
2013-08-06 04:10:00,71.2,64.4,30.02,SSW,202,0.0,2.0,79,0.00,,---,0.00,VWS V14.01,2013-08-06 08:10:00,
2013-08-06 04:15:00,71.2,64.4,30.02,SSW,202,0.0,2.0,79,0.00,,---,0.00,VWS V14.01,2013-08-06 08:15:00,
2013-08-06 04:20:00,71.1,64.3,30.02,South,182,1.0,3.0,79,0.00,,---,0.00,VWS V14.01,2013-08-06 08:20:00,
2013-08-06 04:25:00,71.1,64.3,30.02,South,179,0.0,4.0,79,0.00,,---,0.00,VWS V14.01,2013-08-06 08:25:00,
2013-08-06 04:30:00,71.0,64.2,30.02,South,173,2.0,4.0,79,0.00,,---,0.00,VWS V14.01,2013-08-06 08:30:00,
2013-08-06 04:35:00,71.0,64.5,30.02,WSW,242,0.0,3.0,80,0.00,,---,0.00,VWS V14.01,2013-08-06 08:35:00,
2013-08-06 04:40:00,71.0,64.9,30.02,SW,232,0.0,3.0,81,0.00,,---,0.00,VWS V14.01,2013-08-06 08:40:00,
2013-08-06 04:45:00,70.9,64.4,30.03,WNW,293,0.0,0.0,80,0.00,,---,0.00,VWS V14.01,2013-08-06 08:45:00,
2013-08-06 04:50:00,70.8,64.7,30.03,WNW,298,0.0,2.0,81,0.00,,---,0.00,VWS V14.01,2013-08-06 08:50:00,
2013-08-06 04:55:00,70.7,64.6,30.03,WNW,300,0.0,2.0,81,0.00,,---,0.00,VWS V14.01,2013-08-06 08:55:00,
2013-08-06 05:00:00,70.7,64.6,30.03,WNW,300,0.0,0.0,81,0.00,,---,0.00,VWS V14.01,2013-08-06 09:00:00,
2013-08-06 05:05:00,70.6,65.2,30.03,WNW,300,0.0,0.0,83,0.00,,---,0.00,VWS V14.01,2013-08-06 09:05:00,
2013-08-06 05:10:00,70.4,65.0,30.03,WNW,300,0.0,1.0,83,0.00,,---,0.00,VWS V14.01,2013-08-06 09:10:00,
2013-08-06 05:15:00,70.5,65.1,30.03,WNW,300,0.0,0.0,83,0.00,,---,0.00,VWS V14.01,2013-08-06 09:15:00,
2013-08-06 05:21:00,70.4,65.3,30.03,WNW,300,0.0,1.0,84,0.00,,---,0.00,VWS V14.01,2013-08-06 09:21:00,
2013-08-06 05:26:00,70.2,65.1,30.03,WNW,296,0.0,1.0,84,0.00,,---,0.00,VWS V14.01,2013-08-06 09:26:00,
2013-08-06 05:31:00,70.1,65.4,30.03,SW,223,1.0,1.0,85,0.00,,---,0.00,VWS V14.01,2013-08-06 09:31:00,
2013-08-06 05:36:00,70.0,65.6,30.03,SSE,149,2.0,3.0,86,0.01,,---,0.01,VWS V14.01,2013-08-06 09:36:00,
2013-08-06 05:41:00,69.6,65.6,30.03,SE,145,0.0,3.0,87,0.01,,---,0.01,VWS V14.01,2013-08-06 09:41:00,
2013-08-06 05:46:00,69.3,65.3,30.03,SE,145,0.0,0.0,87,0.01,,---,0.01,VWS V14.01,2013-08-06 09:46:00,
2013-08-06 05:51:00,69.1,65.4,30.03,SE,146,1.0,2.0,88,0.01,,---,0.01,VWS V14.01,2013-08-06 09:51:00,
2013-08-06 05:56:00,68.9,65.5,30.03,SE,146,0.0,2.0,89,0.02,,---,0.02,VWS V14.01,2013-08-06 09:56:00,
2013-08-06 06:01:00,68.8,65.4,30.03,SSE,150,0.0,1.0,89,0.02,,---,0.02,VWS V14.01,2013-08-06 10:01:00,
2013-08-06 06:06:00,68.9,65.5,30.03,SSE,150,0.0,1.0,89,0.02,,---,0.02,VWS V14.01,2013-08-06 10:06:00,
2013-08-06 06:11:00,69.0,65.6,30.03,SSE,150,0.0,1.0,89,0.02,,---,0.02,VWS V14.01,2013-08-06 10:11:00,
2013-08-06 06:16:00,69.0,65.9,30.04,SSE,150,0.0,0.0,90,0.02,,---,0.02,VWS V14.01,2013-08-06 10:16:00,
2013-08-06 06:21:00,68.9,65.8,30.04,SSE,150,0.0,1.0,90,0.02,,---,0.02,VWS V14.01,2013-08-06 10:21:00,
2013-08-06 06:26:00,68.6,65.9,30.04,SSE,147,1.0,2.0,91,0.02,,---,0.02,VWS V14.01,2013-08-06 10:26:00,
2013-08-06 06:31:00,68.5,66.1,30.05,NE,36,2.0,2.0,92,0.02,,---,0.02,VWS V14.01,2013-08-06 10:31:00,
2013-08-06 06:37:00,68.4,66.0,30.05,NNW,327,1.0,4.0,92,0.02,,---,0.02,VWS V14.01,2013-08-06 10:37:00,
2013-08-06 06:42:00,68.4,66.0,30.06,NNW,335,2.0,5.0,92,0.02,,---,0.02,VWS V14.01,2013-08-06 10:42:00,
2013-08-06 06:47:00,68.3,65.9,30.06,NNW,333,2.0,3.0,92,0.02,,---,0.03,VWS V14.01,2013-08-06 10:47:00,
2013-08-06 06:52:00,68.3,65.9,30.06,NNW,329,2.0,4.0,92,0.03,,---,0.04,VWS V14.01,2013-08-06 10:52:00,
2013-08-06 06:57:00,68.2,65.8,30.06,North,349,0.0,4.0,92,0.03,,---,0.04,VWS V14.01,2013-08-06 10:57:00,
2013-08-06 07:02:00,68.1,65.7,30.06,North,349,0.0,0.0,92,0.02,,---,0.04,VWS V14.01,2013-08-06 11:02:00,
2013-08-06 07:07:00,68.1,66.0,30.06,North,349,0.0,0.0,93,0.02,,---,0.04,VWS V14.01,2013-08-06 11:07:00,
2013-08-06 07:12:00,68.1,66.0,30.07,North,349,0.0,0.0,93,0.02,,---,0.04,VWS V14.01,2013-08-06 11:12:00,
2013-08-06 07:17:00,68.2,66.4,30.07,North,349,0.0,0.0,94,0.02,,---,0.04,VWS V14.01,2013-08-06 11:17:00,
2013-08-06 07:22:00,68.3,66.5,30.08,North,349,0.0,0.0,94,0.03,,---,0.05,VWS V14.01,2013-08-06 11:22:00,
2013-08-06 07:27:00,68.3,66.5,30.08,North,349,0.0,0.0,94,0.04,,---,0.06,VWS V14.01,2013-08-06 11:27:00,
2013-08-06 07:32:00,68.3,66.5,30.08,North,349,0.0,0.0,94,0.06,,---,0.08,VWS V14.01,2013-08-06 11:32:00,
2013-08-06 07:37:00,68.3,66.5,30.08,North,349,0.0,0.0,94,0.06,,---,0.08,VWS V14.01,2013-08-06 11:37:00,
2013-08-06 07:42:00,68.2,66.4,30.07,NE,43,1.0,1.0,94,0.08,,---,0.10,VWS V14.01,2013-08-06 11:42:00,
2013-08-06 07:48:00,68.0,66.2,30.08,NE,43,0.0,0.0,94,0.09,,---,0.11,VWS V14.01,2013-08-06 11:48:00,
2013-08-06 07:53:00,67.9,66.1,30.08,NE,45,0.0,1.0,94,0.10,,---,0.12,VWS V14.01,2013-08-06 11:53:00,
2013-08-06 07:58:00,68.0,66.5,30.08,NE,51,0.0,2.0,95,0.12,,---,0.14,VWS V14.01,2013-08-06 11:58:00,
2013-08-06 08:03:00,68.0,66.5,30.09,NE,51,0.0,0.0,95,0.11,,---,0.15,VWS V14.01,2013-08-06 12:03:00,
2013-08-06 08:08:00,68.0,66.5,30.09,NE,51,0.0,0.0,95,0.12,,---,0.16,VWS V14.01,2013-08-06 12:08:00,
2013-08-06 08:13:00,68.0,66.5,30.09,NE,52,0.0,1.0,95,0.13,,---,0.17,VWS V14.01,2013-08-06 12:13:00,
2013-08-06 08:19:00,68.0,66.5,30.08,NE,52,0.0,1.0,95,0.14,,---,0.18,VWS V14.01,2013-08-06 12:19:00,
2013-08-06 08:24:00,68.0,66.5,30.08,NE,52,0.0,1.0,95,0.15,,---,0.19,VWS V14.01,2013-08-06 12:24:00,
2013-08-06 08:29:00,68.0,66.5,30.09,NE,52,0.0,1.0,95,0.18,,---,0.22,VWS V14.01,2013-08-06 12:29:00,
2013-08-06 08:34:00,68.0,66.5,30.09,NE,52,0.0,1.0,95,0.16,,---,0.23,VWS V14.01,2013-08-06 12:34:00,
2013-08-06 08:39:00,68.0,66.5,30.09,NE,52,0.0,1.0,95,0.16,,---,0.23,VWS V14.01,2013-08-06 12:39:00,
2013-08-06 08:44:00,67.9,66.4,30.09,NE,52,0.0,1.0,95,0.17,,---,0.24,VWS V14.01,2013-08-06 12:44:00,
2013-08-06 08:49:00,68.0,66.5,30.10,SE,138,0.0,2.0,95,0.14,,---,0.24,VWS V14.01,2013-08-06 12:49:00,
2013-08-06 08:54:00,68.2,67.0,30.10,SE,138,0.0,2.0,96,0.17,,---,0.27,VWS V14.01,2013-08-06 12:54:00,
2013-08-06 08:59:00,68.3,66.8,30.10,South,182,3.0,3.0,95,0.20,,---,0.30,VWS V14.01,2013-08-06 12:59:00,
2013-08-06 09:04:00,68.0,66.5,30.10,SSE,153,0.0,4.0,95,0.20,,---,0.34,VWS V14.01,2013-08-06 13:04:00,
2013-08-06 09:09:00,67.9,66.4,30.10,SE,131,1.0,4.0,95,0.26,,---,0.40,VWS V14.01,2013-08-06 13:09:00,
2013-08-06 09:14:00,67.8,66.3,30.10,SE,138,0.0,4.0,95,0.31,,---,0.45,VWS V14.01,2013-08-06 13:14:00,
2013-08-06 09:20:00,67.8,66.3,30.10,SE,138,1.0,2.0,95,0.33,,---,0.51,VWS V14.01,2013-08-06 13:20:00,
2013-08-06 09:25:00,67.7,66.2,30.10,SSE,152,1.0,2.0,95,0.37,,---,0.55,VWS V14.01,2013-08-06 13:25:00,
2013-08-06 09:30:00,67.6,66.1,30.10,South,187,2.0,5.0,95,0.40,,---,0.59,VWS V14.01,2013-08-06 13:30:00,
2013-08-06 09:35:00,67.5,66.0,30.10,SE,133,0.0,4.0,95,0.42,,---,0.64,VWS V14.01,2013-08-06 13:35:00,
2013-08-06 09:40:00,67.4,65.9,30.10,SSE,159,3.0,5.0,95,0.45,,---,0.67,VWS V14.01,2013-08-06 13:40:00,
2013-08-06 09:45:00,67.4,65.9,30.10,South,172,3.0,7.0,95,0.46,,---,0.68,VWS V14.01,2013-08-06 13:45:00,
2013-08-06 09:50:00,67.6,66.1,30.10,SSE,158,3.0,6.0,95,0.46,,---,0.70,VWS V14.01,2013-08-06 13:50:00,
2013-08-06 09:55:00,67.7,66.2,30.10,SSE,153,2.0,6.0,95,0.50,,---,0.74,VWS V14.01,2013-08-06 13:55:00,
2013-08-06 10:00:00,67.7,66.2,30.09,SE,146,4.0,4.0,95,0.45,,---,0.76,VWS V14.01,2013-08-06 14:00:00,
2013-08-06 10:05:00,67.8,66.6,30.09,SSE,164,3.0,8.0,96,0.45,,---,0.76,VWS V14.01,2013-08-06 14:05:00,
2013-08-06 10:10:00,68.1,66.6,30.09,SSE,147,2.0,8.0,95,0.45,,---,0.76,VWS V14.01,2013-08-06 14:10:00,
2013-08-06 10:16:00,68.3,67.1,30.09,SSW,196,4.0,5.0,96,0.30,,---,0.76,VWS V14.01,2013-08-06 14:16:00,
2013-08-06 10:21:00,68.5,67.0,30.09,SSW,193,3.0,7.0,95,0.30,,---,0.76,VWS V14.01,2013-08-06 14:21:00,
2013-08-06 10:26:00,68.9,67.4,30.09,SSW,202,5.0,8.0,95,0.30,,---,0.76,VWS V14.01,2013-08-06 14:26:00,
2013-08-06 10:31:00,69.0,67.5,30.09,SSE,152,2.0,4.0,95,0.17,,---,0.76,VWS V14.01,2013-08-06 14:31:00,
2013-08-06 10:36:00,69.1,67.6,30.10,SSE,168,1.0,7.0,95,0.17,,---,0.76,VWS V14.01,2013-08-06 14:36:00,
2013-08-06 10:41:00,69.2,67.4,30.10,South,185,4.0,7.0,94,0.17,,---,0.76,VWS V14.01,2013-08-06 14:41:00,
2013-08-06 10:46:00,69.4,67.6,30.10,South,171,6.0,7.0,94,0.08,,---,0.76,VWS V14.01,2013-08-06 14:46:00,
2013-08-06 10:51:00,69.5,67.7,30.10,South,190,5.0,7.0,94,0.08,,---,0.76,VWS V14.01,2013-08-06 14:51:00,
2013-08-06 10:56:00,69.8,68.0,30.10,South,177,3.0,7.0,94,0.08,,---,0.76,VWS V14.01,2013-08-06 14:56:00,
2013-08-06 11:01:00,70.0,67.9,30.10,SSE,150,3.0,4.0,93,0.00,,---,0.76,VWS V14.01,2013-08-06 15:01:00,
2013-08-06 11:07:00,70.2,68.4,30.10,SE,130,5.0,8.0,94,0.00,,---,0.76,VWS V14.01,2013-08-06 15:07:00,
2013-08-06 11:12:00,70.2,68.1,30.10,South,174,3.0,8.0,93,0.00,,---,0.76,VWS V14.01,2013-08-06 15:12:00,
2013-08-06 11:17:00,70.2,68.1,30.10,South,176,2.0,6.0,93,0.00,,---,0.76,VWS V14.01,2013-08-06 15:17:00,
2013-08-06 11:22:00,70.2,67.8,30.10,SSE,159,3.0,8.0,92,0.00,,---,0.76,VWS V14.01,2013-08-06 15:22:00,
2013-08-06 11:27:00,70.5,68.4,30.10,SSE,159,1.0,8.0,93,0.00,,---,0.76,VWS V14.01,2013-08-06 15:27:00,
2013-08-06 11:32:00,70.6,68.2,30.11,South,169,2.0,6.0,92,0.00,,---,0.76,VWS V14.01,2013-08-06 15:32:00,
2013-08-06 11:37:00,70.4,67.7,30.11,South,174,6.0,11.0,91,0.00,,---,0.76,VWS V14.01,2013-08-06 15:37:00,
2013-08-06 11:42:00,70.2,67.1,30.10,South,182,3.0,11.0,90,0.00,,---,0.76,VWS V14.01,2013-08-06 15:42:00,
2013-08-06 11:47:00,70.3,67.6,30.10,South,188,2.0,7.0,91,0.00,,---,0.76,VWS V14.01,2013-08-06 15:47:00,
2013-08-06 11:52:00,70.3,67.6,30.11,SSE,163,3.0,7.0,91,0.00,,---,0.76,VWS V14.01,2013-08-06 15:52:00,
2013-08-06 11:58:00,70.2,67.8,30.10,South,178,2.0,7.0,92,0.00,,---,0.76,VWS V14.01,2013-08-06 15:58:00,
2013-08-06 12:03:00,70.3,67.9,30.10,SSE,165,2.0,6.0,92,0.00,,---,0.76,VWS V14.01,2013-08-06 16:03:00,
2013-08-06 12:08:00,70.2,67.8,30.10,SSE,163,2.0,8.0,92,0.00,,---,0.76,VWS V14.01,2013-08-06 16:08:00,
2013-08-06 12:13:00,70.2,67.8,30.10,SSE,166,3.0,8.0,92,0.00,,---,0.76,VWS V14.01,2013-08-06 16:13:00,
2013-08-06 12:18:00,70.2,67.8,30.10,South,175,2.0,7.0,92,0.00,,---,0.76,VWS V14.01,2013-08-06 16:18:00,
2013-08-06 12:23:00,70.4,68.0,30.10,SE,133,0.0,7.0,92,0.00,,---,0.76,VWS V14.01,2013-08-06 16:23:00,
2013-08-06 12:28:00,70.5,68.1,30.10,South,188,4.0,7.0,92,0.00,,---,0.76,VWS V14.01,2013-08-06 16:28:00,
2013-08-06 12:33:00,70.4,68.0,30.10,SSE,150,3.0,5.0,92,0.00,,---,0.76,VWS V14.01,2013-08-06 16:33:00,
2013-08-06 12:38:00,70.5,68.1,30.11,SSE,161,1.0,5.0,92,0.00,,---,0.76,VWS V14.01,2013-08-06 16:38:00,
2013-08-06 12:44:00,70.6,68.2,30.11,South,173,4.0,6.0,92,0.00,,---,0.76,VWS V14.01,2013-08-06 16:44:00,
2013-08-06 12:49:00,70.4,68.0,30.11,SE,131,4.0,5.0,92,0.00,,---,0.76,VWS V14.01,2013-08-06 16:49:00,
2013-08-06 12:54:00,70.2,67.8,30.10,SSE,164,4.0,6.0,92,0.00,,---,0.76,VWS V14.01,2013-08-06 16:54:00,
2013-08-06 12:59:00,70.4,68.3,30.10,South,170,1.0,6.0,93,0.00,,---,0.76,VWS V14.01,2013-08-06 16:59:00,
2013-08-06 13:04:00,70.3,68.2,30.10,South,171,3.0,3.0,93,0.00,,---,0.76,VWS V14.01,2013-08-06 17:04:00,
2013-08-06 13:09:00,70.1,68.0,30.10,SE,144,1.0,5.0,93,0.01,,---,0.77,VWS V14.01,2013-08-06 17:09:00,
2013-08-06 13:14:00,69.9,67.8,30.10,South,169,2.0,8.0,93,0.02,,---,0.78,VWS V14.01,2013-08-06 17:14:00,
2013-08-06 13:19:00,69.8,67.7,30.10,South,169,3.0,5.0,93,0.02,,---,0.78,VWS V14.01,2013-08-06 17:19:00,
2013-08-06 13:24:00,69.8,68.0,30.10,SSE,158,3.0,6.0,94,0.02,,---,0.78,VWS V14.01,2013-08-06 17:24:00,
2013-08-06 13:27:00,69.8,68.0,30.10,SE,144,2.0,6.0,94,0.02,,---,0.78,VWS V14.01,2013-08-06 17:27:00,
2013-08-06 13:32:00,69.8,68.0,30.10,South,178,2.0,4.0,94,0.03,,---,0.79,VWS V14.01,2013-08-06 17:32:00,
2013-08-06 13:37:00,69.8,68.0,30.10,South,171,1.0,6.0,94,0.03,,---,0.79,VWS V14.01,2013-08-06 17:37:00,
2013-08-06 13:42:00,69.6,67.8,30.10,South,190,1.0,8.0,94,0.03,,---,0.79,VWS V14.01,2013-08-06 17:42:00,
2013-08-06 13:47:00,69.7,67.9,30.10,SSE,153,4.0,7.0,94,0.03,,---,0.79,VWS V14.01,2013-08-06 17:47:00,
2013-08-06 13:52:00,69.9,68.1,30.09,SSE,155,4.0,7.0,94,0.03,,---,0.79,VWS V14.01,2013-08-06 17:52:00,
2013-08-06 13:57:00,70.1,68.3,30.10,SE,134,3.0,8.0,94,0.03,,---,0.79,VWS V14.01,2013-08-06 17:57:00,
2013-08-06 14:03:00,70.2,68.4,30.10,South,169,7.0,7.0,94,0.03,,---,0.79,VWS V14.01,2013-08-06 18:03:00,
2013-08-06 14:08:00,70.2,68.4,30.10,SSE,152,1.0,7.0,94,0.03,,---,0.79,VWS V14.01,2013-08-06 18:08:00,
2013-08-06 14:13:00,70.2,68.4,30.09,SE,145,3.0,7.0,94,0.03,,---,0.79,VWS V14.01,2013-08-06 18:13:00,
2013-08-06 14:18:00,70.9,69.1,30.09,SSE,163,2.0,5.0,94,0.01,,---,0.79,VWS V14.01,2013-08-06 18:18:00,
2013-08-06 14:23:00,70.5,68.1,30.09,SSW,200,6.0,9.0,92,0.01,,---,0.79,VWS V14.01,2013-08-06 18:23:00,
2013-08-06 14:28:00,70.1,68.0,30.10,SSE,150,3.0,9.0,93,0.01,,---,0.79,VWS V14.01,2013-08-06 18:28:00,
2013-08-06 14:33:00,70.0,67.9,30.10,SSE,163,6.0,9.0,93,0.01,,---,0.79,VWS V14.01,2013-08-06 18:33:00,
2013-08-06 14:38:00,69.9,67.8,30.10,South,180,4.0,9.0,93,0.01,,---,0.79,VWS V14.01,2013-08-06 18:38:00,
2013-08-06 14:43:00,70.0,67.9,30.10,SSE,151,2.0,9.0,93,0.01,,---,0.79,VWS V14.01,2013-08-06 18:43:00,
2013-08-06 14:48:00,70.1,68.0,30.10,South,177,2.0,7.0,93,0.00,,---,0.79,VWS V14.01,2013-08-06 18:48:00,
2013-08-06 14:54:00,70.2,68.1,30.09,SSW,197,3.0,8.0,93,0.00,,---,0.79,VWS V14.01,2013-08-06 18:54:00,
2013-08-06 14:59:00,70.1,67.7,30.10,SSE,150,0.0,8.0,92,0.00,,---,0.79,VWS V14.01,2013-08-06 18:59:00,
2013-08-06 15:04:00,70.1,68.0,30.10,SSE,167,6.0,11.0,93,0.00,,---,0.79,VWS V14.01,2013-08-06 19:04:00,
2013-08-06 15:09:00,69.9,67.8,30.09,SSE,149,1.0,11.0,93,0.00,,---,0.79,VWS V14.01,2013-08-06 19:09:00,
2013-08-06 15:14:00,69.8,67.7,30.09,SSE,163,2.0,11.0,93,0.00,,---,0.79,VWS V14.01,2013-08-06 19:14:00,
2013-08-06 15:19:00,69.7,67.6,30.09,SSE,164,4.0,8.0,93,0.00,,---,0.79,VWS V14.01,2013-08-06 19:19:00,
2013-08-06 15:24:00,69.7,67.9,30.09,SE,136,4.0,8.0,94,0.01,,---,0.80,VWS V14.01,2013-08-06 19:24:00,
2013-08-06 15:29:00,70.1,68.3,30.09,South,171,8.0,8.0,94,0.01,,---,0.80,VWS V14.01,2013-08-06 19:29:00,
2013-08-06 15:34:00,70.1,68.3,30.09,SSE,163,3.0,7.0,94,0.01,,---,0.80,VWS V14.01,2013-08-06 19:34:00,
2013-08-06 15:40:00,69.9,67.8,30.09,South,170,6.0,8.0,93,0.01,,---,0.80,VWS V14.01,2013-08-06 19:40:00,
2013-08-06 15:45:00,70.1,68.0,30.09,SE,136,5.0,8.0,93,0.01,,---,0.80,VWS V14.01,2013-08-06 19:45:00,
2013-08-06 15:50:00,70.1,68.0,30.09,SSW,201,1.0,7.0,93,0.01,,---,0.80,VWS V14.01,2013-08-06 19:50:00,
2013-08-06 15:55:00,70.4,68.0,30.09,SSE,163,3.0,7.0,92,0.01,,---,0.80,VWS V14.01,2013-08-06 19:55:00,
2013-08-06 16:00:00,70.6,68.2,30.08,SSE,159,2.0,7.0,92,0.01,,---,0.80,VWS V14.01,2013-08-06 20:00:00,
2013-08-06 16:05:00,70.8,68.7,30.08,SSE,165,1.0,3.0,93,0.01,,---,0.80,VWS V14.01,2013-08-06 20:05:00,
2013-08-06 16:10:00,70.8,68.4,30.08,South,180,1.0,4.0,92,0.01,,---,0.80,VWS V14.01,2013-08-06 20:10:00,
2013-08-06 16:15:00,71.0,68.6,30.08,SSE,150,2.0,2.0,92,0.01,,---,0.80,VWS V14.01,2013-08-06 20:15:00,
2013-08-06 16:20:00,71.1,68.3,30.08,SE,136,2.0,5.0,91,0.01,,---,0.80,VWS V14.01,2013-08-06 20:20:00,
2013-08-06 16:25:00,71.1,68.3,30.08,South,182,3.0,5.0,91,0.01,,---,0.80,VWS V14.01,2013-08-06 20:25:00,
2013-08-06 16:31:00,71.4,68.6,30.08,SSE,147,2.0,3.0,91,0.00,,---,0.80,VWS V14.01,2013-08-06 20:31:00,
2013-08-06 16:32:00,71.4,68.6,30.08,SSW,196,1.0,4.0,91,0.00,,---,0.80,VWS V14.01,2013-08-06 20:32:00,
2013-08-06 16:37:00,71.5,68.4,30.08,SE,132,5.0,8.0,90,0.00,,---,0.80,VWS V14.01,2013-08-06 20:37:00,
2013-08-06 16:42:00,71.6,68.5,30.08,South,171,0.0,8.0,90,0.00,,---,0.80,VWS V14.01,2013-08-06 20:42:00,
2013-08-06 16:47:00,71.4,68.3,30.08,South,178,2.0,3.0,90,0.00,,---,0.80,VWS V14.01,2013-08-06 20:47:00,
2013-08-06 16:52:00,71.4,68.6,30.08,South,175,1.0,6.0,91,0.00,,---,0.80,VWS V14.01,2013-08-06 20:52:00,
2013-08-06 16:57:00,71.4,68.6,30.08,ESE,121,3.0,6.0,91,0.00,,---,0.80,VWS V14.01,2013-08-06 20:57:00,
2013-08-06 17:02:00,71.4,68.6,30.08,SSE,147,1.0,5.0,91,0.00,,---,0.80,VWS V14.01,2013-08-06 21:02:00,
2013-08-06 17:07:00,71.4,68.6,30.08,SSE,148,1.0,6.0,91,0.00,,---,0.80,VWS V14.01,2013-08-06 21:07:00,
2013-08-06 17:12:00,71.7,68.9,30.08,SSE,150,3.0,6.0,91,0.00,,---,0.80,VWS V14.01,2013-08-06 21:12:00,
2013-08-06 17:18:00,72.0,68.9,30.08,South,171,2.0,6.0,90,0.00,,---,0.80,VWS V14.01,2013-08-06 21:18:00,
2013-08-06 17:23:00,72.1,69.3,30.07,South,177,3.0,8.0,91,0.00,,---,0.80,VWS V14.01,2013-08-06 21:23:00,
2013-08-06 17:28:00,72.0,68.6,30.08,SE,136,3.0,8.0,89,0.00,,---,0.80,VWS V14.01,2013-08-06 21:28:00,
2013-08-06 17:33:00,72.1,68.7,30.08,SSE,153,1.0,7.0,89,0.00,,---,0.80,VWS V14.01,2013-08-06 21:33:00,
2013-08-06 17:38:00,72.1,68.7,30.08,SE,136,3.0,7.0,89,0.00,,---,0.80,VWS V14.01,2013-08-06 21:38:00,
2013-08-06 17:43:00,72.2,68.8,30.08,SE,125,3.0,7.0,89,0.00,,---,0.80,VWS V14.01,2013-08-06 21:43:00,
2013-08-06 17:48:00,72.3,68.9,30.08,SE,135,2.0,5.0,89,0.00,,---,0.80,VWS V14.01,2013-08-06 21:48:00,
2013-08-06 17:53:00,72.3,68.9,30.08,SE,134,3.0,7.0,89,0.00,,---,0.80,VWS V14.01,2013-08-06 21:53:00,
2013-08-06 17:59:00,72.5,68.8,30.08,South,175,3.0,7.0,88,0.00,,---,0.80,VWS V14.01,2013-08-06 21:59:00,
2013-08-06 18:04:00,72.4,69.0,30.08,South,189,3.0,7.0,89,0.00,,---,0.80,VWS V14.01,2013-08-06 22:04:00,
2013-08-06 18:09:00,72.6,69.2,30.08,SSE,159,0.0,7.0,89,0.00,,---,0.80,VWS V14.01,2013-08-06 22:09:00,
2013-08-06 18:14:00,73.0,69.2,30.08,SSE,153,5.0,7.0,88,0.00,,---,0.80,VWS V14.01,2013-08-06 22:14:00,
2013-08-06 18:19:00,73.3,69.5,30.07,SSE,161,2.0,4.0,88,0.00,,---,0.80,VWS V14.01,2013-08-06 22:19:00,
2013-08-06 18:24:00,73.3,69.5,30.07,SE,143,1.0,6.0,88,0.00,,---,0.80,VWS V14.01,2013-08-06 22:24:00,
2013-08-06 18:29:00,73.4,69.3,30.07,ESE,115,2.0,6.0,87,0.00,,---,0.80,VWS V14.01,2013-08-06 22:29:00,
2013-08-06 18:34:00,73.4,69.3,30.08,SSE,156,3.0,5.0,87,0.00,,---,0.80,VWS V14.01,2013-08-06 22:34:00,
2013-08-06 18:40:00,73.3,69.5,30.08,SSE,155,2.0,5.0,88,0.00,,---,0.80,VWS V14.01,2013-08-06 22:40:00,
2013-08-06 18:45:00,73.1,69.3,30.08,SSE,157,1.0,6.0,88,0.00,,---,0.80,VWS V14.01,2013-08-06 22:45:00,
2013-08-06 18:50:00,73.0,69.2,30.08,ESE,122,2.0,4.0,88,0.00,,---,0.80,VWS V14.01,2013-08-06 22:50:00,
2013-08-06 18:55:00,72.8,69.0,30.08,SSE,160,3.0,5.0,88,0.00,,---,0.80,VWS V14.01,2013-08-06 22:55:00,
2013-08-06 19:00:00,72.8,69.0,30.08,South,178,0.0,5.0,88,0.00,,---,0.80,VWS V14.01,2013-08-06 23:00:00,
2013-08-06 19:05:00,72.8,69.0,30.08,SE,141,3.0,4.0,88,0.00,,---,0.80,VWS V14.01,2013-08-06 23:05:00,
2013-08-06 19:10:00,72.8,69.0,30.09,SSE,165,2.0,4.0,88,0.00,,---,0.80,VWS V14.01,2013-08-06 23:10:00,
2013-08-06 19:15:00,72.8,69.0,30.08,SSE,150,3.0,3.0,88,0.00,,---,0.80,VWS V14.01,2013-08-06 23:15:00,
2013-08-06 19:20:00,72.8,69.0,30.08,SSE,162,3.0,4.0,88,0.00,,---,0.80,VWS V14.01,2013-08-06 23:20:00,
2013-08-06 19:26:00,73.0,69.2,30.08,South,191,4.0,6.0,88,0.00,,---,0.80,VWS V14.01,2013-08-06 23:26:00,
2013-08-06 19:31:00,73.1,69.3,30.08,SSE,158,0.0,1.0,88,0.00,,---,0.80,VWS V14.01,2013-08-06 23:31:00,
2013-08-06 19:36:00,73.0,68.9,30.08,SSE,166,0.0,6.0,87,0.00,,---,0.80,VWS V14.01,2013-08-06 23:36:00,
2013-08-06 19:41:00,72.7,68.3,30.08,SE,142,3.0,7.0,86,0.00,,---,0.80,VWS V14.01,2013-08-06 23:41:00,
2013-08-06 19:46:00,72.4,67.6,30.08,SE,143,3.0,4.0,85,0.00,,---,0.80,VWS V14.01,2013-08-06 23:46:00,
2013-08-06 19:51:00,72.2,67.8,30.08,SSE,163,2.0,5.0,86,0.00,,---,0.80,VWS V14.01,2013-08-06 23:51:00,
2013-08-06 19:56:00,72.1,67.7,30.08,SSE,163,0.0,5.0,86,0.00,,---,0.80,VWS V14.01,2013-08-06 23:56:00,
2013-08-06 20:01:00,72.0,67.6,30.08,SSE,168,3.0,3.0,86,0.00,,---,0.80,VWS V14.01,2013-08-07 00:01:00,
2013-08-06 20:06:00,71.9,67.8,30.08,SE,143,0.0,4.0,87,0.00,,---,0.80,VWS V14.01,2013-08-07 00:06:00,
2013-08-06 20:11:00,71.8,67.7,30.08,SSE,159,0.0,4.0,87,0.00,,---,0.80,VWS V14.01,2013-08-07 00:11:00,
2013-08-06 20:17:00,71.7,68.0,30.08,SSE,159,0.0,1.0,88,0.00,,---,0.80,VWS V14.01,2013-08-07 00:17:00,
2013-08-06 20:22:00,71.6,67.9,30.08,SE,146,2.0,3.0,88,0.00,,---,0.80,VWS V14.01,2013-08-07 00:22:00,
2013-08-06 20:27:00,71.6,67.9,30.09,SE,146,0.0,3.0,88,0.00,,---,0.80,VWS V14.01,2013-08-07 00:27:00,
2013-08-06 20:32:00,71.5,67.8,30.08,SE,146,0.0,0.0,88,0.00,,---,0.80,VWS V14.01,2013-08-07 00:32:00,
2013-08-06 20:37:00,71.4,68.0,30.08,SE,146,0.0,1.0,89,0.00,,---,0.80,VWS V14.01,2013-08-07 00:37:00,
2013-08-06 20:42:00,71.4,68.0,30.09,SE,146,0.0,1.0,89,0.00,,---,0.80,VWS V14.01,2013-08-07 00:42:00,
2013-08-06 20:47:00,71.3,67.9,30.09,SSE,150,3.0,3.0,89,0.00,,---,0.80,VWS V14.01,2013-08-07 00:47:00,
2013-08-06 20:52:00,71.2,67.8,30.09,SSE,150,0.0,3.0,89,0.00,,---,0.80,VWS V14.01,2013-08-07 00:52:00,
2013-08-06 20:57:00,71.1,67.7,30.09,SSE,161,1.0,3.0,89,0.00,,---,0.80,VWS V14.01,2013-08-07 00:57:00,
2013-08-06 21:03:00,71.0,67.6,30.09,SSE,161,0.0,1.0,89,0.00,,---,0.80,VWS V14.01,2013-08-07 01:03:00,
2013-08-06 21:08:00,71.0,67.3,30.09,SSE,161,0.0,1.0,88,0.00,,---,0.80,VWS V14.01,2013-08-07 01:08:00,
2013-08-06 21:13:00,71.0,67.6,30.09,SSE,161,0.0,1.0,89,0.00,,---,0.80,VWS V14.01,2013-08-07 01:13:00,
2013-08-06 21:18:00,71.0,67.6,30.09,SSE,161,0.0,0.0,89,0.00,,---,0.80,VWS V14.01,2013-08-07 01:18:00,
2013-08-06 21:23:00,70.8,67.7,30.09,SSE,161,0.0,1.0,90,0.00,,---,0.80,VWS V14.01,2013-08-07 01:23:00,
2013-08-06 21:28:00,70.8,67.7,30.09,SSE,161,0.0,1.0,90,0.00,,---,0.80,VWS V14.01,2013-08-07 01:28:00,
2013-08-06 21:33:00,70.7,67.6,30.09,SSE,161,0.0,1.0,90,0.00,,---,0.80,VWS V14.01,2013-08-07 01:33:00,
2013-08-06 21:38:00,70.5,67.4,30.09,SSE,161,0.0,1.0,90,0.00,,---,0.80,VWS V14.01,2013-08-07 01:38:00,
2013-08-06 21:43:00,70.3,67.2,30.09,SSE,161,0.0,1.0,90,0.00,,---,0.80,VWS V14.01,2013-08-07 01:43:00,
2013-08-06 21:48:00,70.1,67.4,30.09,SSE,161,0.0,1.0,91,0.00,,---,0.80,VWS V14.01,2013-08-07 01:48:00,
2013-08-06 21:54:00,70.0,67.3,30.09,SSE,161,0.0,2.0,91,0.00,,---,0.80,VWS V14.01,2013-08-07 01:54:00,
2013-08-06 21:59:00,69.9,67.2,30.09,SSE,161,0.0,2.0,91,0.00,,---,0.80,VWS V14.01,2013-08-07 01:59:00,
2013-08-06 22:04:00,69.8,67.1,30.10,SSE,161,0.0,0.0,91,0.00,,---,0.80,VWS V14.01,2013-08-07 02:04:00,
2013-08-06 22:09:00,69.8,67.1,30.10,SSE,161,0.0,1.0,91,0.00,,---,0.80,VWS V14.01,2013-08-07 02:09:00,
2013-08-06 22:14:00,69.8,67.4,30.10,SSE,161,0.0,1.0,92,0.00,,---,0.80,VWS V14.01,2013-08-07 02:14:00,
2013-08-06 22:19:00,69.9,67.5,30.10,SSE,161,0.0,0.0,92,0.00,,---,0.80,VWS V14.01,2013-08-07 02:19:00,
2013-08-06 22:24:00,69.8,67.4,30.10,SSE,161,0.0,0.0,92,0.00,,---,0.80,VWS V14.01,2013-08-07 02:24:00,
2013-08-06 22:29:00,69.6,67.2,30.11,SSE,161,0.0,0.0,92,0.00,,---,0.80,VWS V14.01,2013-08-07 02:29:00,
2013-08-06 22:34:00,69.3,66.9,30.11,SSE,161,0.0,0.0,92,0.00,,---,0.80,VWS V14.01,2013-08-07 02:34:00,
2013-08-06 22:39:00,69.1,67.0,30.11,SSE,161,0.0,0.0,93,0.00,,---,0.80,VWS V14.01,2013-08-07 02:39:00,
2013-08-06 22:45:00,69.0,66.9,30.11,SSE,161,0.0,0.0,93,0.00,,---,0.80,VWS V14.01,2013-08-07 02:45:00,
2013-08-06 22:50:00,69.1,67.3,30.12,SSE,161,0.0,0.0,94,0.00,,---,0.80,VWS V14.01,2013-08-07 02:50:00,
2013-08-06 22:55:00,69.1,67.3,30.12,SSE,161,0.0,0.0,94,0.00,,---,0.80,VWS V14.01,2013-08-07 02:55:00,
2013-08-06 23:00:00,69.2,67.4,30.12,SSE,161,0.0,0.0,94,0.00,,---,0.80,VWS V14.01,2013-08-07 03:00:00,
2013-08-06 23:05:00,69.3,67.5,30.12,SSE,161,0.0,0.0,94,0.00,,---,0.80,VWS V14.01,2013-08-07 03:05:00,
2013-08-06 23:10:00,69.5,67.7,30.11,SSE,161,0.0,0.0,94,0.00,,---,0.80,VWS V14.01,2013-08-07 03:10:00,
2013-08-06 23:15:00,69.5,67.7,30.11,SSE,161,0.0,0.0,94,0.00,,---,0.80,VWS V14.01,2013-08-07 03:15:00,
2013-08-06 23:20:00,69.5,67.7,30.11,SSE,161,0.0,0.0,94,0.00,,---,0.80,VWS V14.01,2013-08-07 03:20:00,
2013-08-06 23:25:00,69.4,67.6,30.10,SSE,161,0.0,0.0,94,0.00,,---,0.80,VWS V14.01,2013-08-07 03:25:00,
2013-08-06 23:31:00,69.4,67.6,30.11,SSE,161,0.0,0.0,94,0.00,,---,0.80,VWS V14.01,2013-08-07 03:31:00,
2013-08-06 23:36:00,69.3,67.5,30.10,SSE,161,0.0,0.0,94,0.00,,---,0.80,VWS V14.01,2013-08-07 03:36:00,
2013-08-06 23:41:00,69.4,67.6,30.11,SSE,161,0.0,0.0,94,0.00,,---,0.80,VWS V14.01,2013-08-07 03:41:00,
2013-08-06 23:46:00,69.4,67.6,30.11,SSE,161,0.0,0.0,94,0.00,,---,0.80,VWS V14.01,2013-08-07 03:46:00,
2013-08-06 23:51:00,69.4,67.6,30.10,SSE,161,0.0,0.0,94,0.00,,---,0.80,VWS V14.01,2013-08-07 03:51:00,
2013-08-06 23:56:00,69.3,67.5,30.10,SSE,161,0.0,0.0,94,0.00,,---,0.80,VWS V14.01,2013-08-07 03:56:00,